TimeCET,TemperatureF,Dew PointF,Humidity,Sea Level PressureIn,VisibilityMPH,Wind Direction,Wind SpeedMPH,Gust SpeedMPH,PrecipitationIn,Events,Conditions,WindDirDegrees,DateUTC
12:00 AM,42.8,23.0,46,29.65,6.2,SW,9.2,-,N/A,,Unknown,230,2012-10-28 23:00:00
12:30 AM,42.8,23.0,46,29.68,6.2,SW,5.8,-,N/A,,Unknown,220,2012-10-28 23:30:00
1:00 AM,41.0,23.0,49,29.68,6.2,SW,4.6,-,N/A,,Unknown,220,2012-10-29 00:00:00
1:30 AM,41.0,24.8,53,29.68,6.2,SSW,4.6,-,N/A,,Unknown,210,2012-10-29 00:30:00
2:00 AM,41.0,23.0,49,29.71,6.2,SW,5.8,-,N/A,,Unknown,230,2012-10-29 01:00:00
2:30 AM,41.0,24.8,53,29.71,6.2,SSW,4.6,-,N/A,,Unknown,210,2012-10-29 01:30:00
3:00 AM,41.0,24.8,53,29.71,6.2,SSW,4.6,-,N/A,,Unknown,210,2012-10-29 02:00:00
3:30 AM,39.2,24.8,56,29.71,6.2,SSW,5.8,-,N/A,,Unknown,210,2012-10-29 02:30:00
4:00 AM,39.2,24.8,56,29.71,6.2,WSW,8.1,-,N/A,,Unknown,240,2012-10-29 03:00:00
4:30 AM,39.2,24.8,56,29.71,6.2,SW,5.8,-,N/A,,Unknown,230,2012-10-29 03:30:00
5:00 AM,39.2,24.8,56,29.71,6.2,WSW,8.1,-,N/A,,Unknown,250,2012-10-29 04:00:00
5:30 AM,39.2,24.8,56,29.74,6.2,SW,6.9,-,N/A,,Unknown,220,2012-10-29 04:30:00
6:00 AM,39.2,24.8,56,29.74,6.2,SW,5.8,-,N/A,,Unknown,230,2012-10-29 05:00:00
6:30 AM,39.2,24.8,56,29.74,6.2,SSW,5.8,-,N/A,,Unknown,210,2012-10-29 05:30:00
7:00 AM,39.2,24.8,56,29.74,6.2,SW,4.6,-,N/A,,Partly Cloudy,220,2012-10-29 06:00:00
8:00 AM,39.2,26.6,61,29.77,6.2,WSW,4.6,-,N/A,,Partly Cloudy,240,2012-10-29 07:00:00
9:00 AM,44.6,24.8,46,29.80,-9999.0,WSW,8.1,-,N/A,,Clear,250,2012-10-29 08:00:00
10:00 AM,48.2,26.6,43,29.80,-9999.0,Variable,3.5,-,N/A,,Clear,0,2012-10-29 09:00:00
11:00 AM,51.8,26.6,38,29.80,-9999.0,Variable,3.5,-,N/A,,Clear,0,2012-10-29 10:00:00
12:00 PM,55.4,28.4,36,29.80,-9999.0,Variable,2.3,-,N/A,,Clear,0,2012-10-29 11:00:00
1:00 PM,59.0,28.4,31,29.80,-9999.0,Calm,Calm,-,N/A,,Clear,0,2012-10-29 12:00:00
2:00 PM,59.0,30.2,34,29.80,-9999.0,Variable,1.2,-,N/A,,Clear,0,2012-10-29 13:00:00
3:00 PM,62.6,32.0,32,29.77,-9999.0,Variable,2.3,-,N/A,,Clear,0,2012-10-29 14:00:00
4:00 PM,59.0,35.6,42,29.80,-9999.0,ESE,8.1,-,N/A,,Clear,110,2012-10-29 15:00:00
5:00 PM,57.2,35.6,44,29.80,-9999.0,SSE,3.5,-,N/A,,Clear,150,2012-10-29 16:00:00
6:00 PM,51.8,33.8,50,29.80,-9999.0,Variable,1.2,-,N/A,,Clear,0,2012-10-29 17:00:00
7:00 PM,46.4,37.4,71,29.83,-9999.0,Calm,Calm,-,N/A,,Clear,0,2012-10-29 18:00:00
7:30 PM,44.6,37.4,76,29.83,6.2,Calm,Calm,-,N/A,,Unknown,0,2012-10-29 18:30:00
8:00 PM,42.8,37.4,81,29.83,6.2,Variable,2.3,-,N/A,,Unknown,0,2012-10-29 19:00:00
8:30 PM,42.8,35.6,76,29.86,6.2,Variable,1.2,-,N/A,,Unknown,0,2012-10-29 19:30:00
9:00 PM,42.8,35.6,76,29.86,6.2,South,3.5,-,N/A,,Unknown,180,2012-10-29 20:00:00
9:30 PM,39.2,35.6,87,29.89,6.2,NW,1.2,-,N/A,,Unknown,310,2012-10-29 20:30:00
10:00 PM,39.2,35.6,87,29.89,6.2,Calm,Calm,-,N/A,,Unknown,0,2012-10-29 21:00:00
10:30 PM,37.4,33.8,87,29.89,6.2,Calm,Calm,-,N/A,,Unknown,0,2012-10-29 21:30:00
11:00 PM,37.4,35.6,93,29.89,6.2,Calm,Calm,-,N/A,,Unknown,0,2012-10-29 22:00:00
11:30 PM,35.6,33.8,93,29.89,6.2,Calm,Calm,-,N/A,,Unknown,0,2012-10-29 22:30:00